Change the Weather History Date:

Friday, September 21, 2012

  Actual Average Record
Temperature  
Mean Temperature 56 °F -  
Max Temperature 66 °F - - ()
Min Temperature 47 °F - - ()
Degree Days  
Heating Degree Days 8    
Growing Degree Days 6 (Base 50)    
Moisture  
Dew Point 55 °F    
Average Humidity 90    
Maximum Humidity 99    
Minimum Humidity 79    
Precipitation  
Precipitation 0.35 in - - ()
Sea Level Pressure  
Sea Level Pressure 29.96 in    
Wind  
Wind Speed 2 mph ()    
Max Wind Speed 7 mph    
Max Gust Speed -    
T = Trace of Precipitation, MM = Missing Value Source: Averaged Metar Reports

Daily Weather History Graph

Daily Weather History Graph

Search for Another Location

Airport or City:

Trip Planner

Search our weather history database for the weather conditions in past years. The results will help you decide how hot, cold, wet, or windy it might be!

Date:

Astronomy

Sep. 21, 2012 Rise Set
Actual Time 6:43 AM EDT 6:55 PM EDT
Civil Twilight 6:14 AM EDT 7:25 PM EDT
Nautical Twilight 5:39 AM EDT 7:59 PM EDT
Astronomical Twilight 5:04 AM EDT 8:34 PM EDT
Moon 1:19 PM EDT (9/21) 10:37 PM EDT (9/21)
Length of Visible Light 13h 10m
Length of Day
12h 12m
Waxing Crescent, 37% of the Moon is Illuminated
Sep 21
Waxing Crescent
Sep 22
First Quarter
Sep 29
Full
Oct 8
Last Quarter
Oct 15
New

Hourly Weather History & Observations

Time (EDT) Temp. Dew Point Humidity Pressure Visibility Wind Dir Wind Speed Gust Speed Precip Events Conditions
12:00 AM 48.7 °F 45.5 °F 89% 30.00 in - East 1.2 mph - N/A   Unknown
1:00 AM 49.3 °F 45.3 °F 86% 29.99 in - ENE 2.3 mph - N/A   Unknown
2:00 AM 50 °F 47 °F 86% 29.98 in - ENE 3.5 mph - -  
2:00 AM 50.4 °F 47.1 °F 89% 29.98 in - ENE 3.5 mph - N/A   Unknown
3:00 AM 51.3 °F 47.5 °F 87% 29.97 in - NE 4.6 mph - N/A   Unknown
4:00 AM 52.5 °F 48.0 °F 85% 29.97 in - ENE 3.5 mph - N/A   Unknown
5:00 AM 52.7 °F 48.6 °F 86% 29.96 in - East 2.3 mph - N/A   Unknown
6:00 AM 53.2 °F 49.8 °F 88% 29.97 in - NE 2.3 mph - N/A   Unknown
7:00 AM 53.4 °F 50.4 °F 89% 29.98 in - ESE 2.3 mph - N/A   Unknown
8:00 AM 54 °F 52 °F 91% 29.99 in - Calm Calm - -  
8:00 AM 54.0 °F 52.2 °F 94% 29.99 in - Calm Calm - N/A   Unknown
9:00 AM 55.0 °F 53.6 °F 95% 29.99 in - ENE 2.3 mph - N/A   Unknown
10:00 AM 55.9 °F 54.7 °F 96% 29.99 in - NE 1.2 mph - 0.04 in   Unknown
11:00 AM 58.5 °F 56.5 °F 93% 29.98 in - East 3.5 mph - N/A   Unknown
12:00 PM 60.6 °F 57.0 °F 88% 29.97 in - ENE 3.5 mph - N/A   Unknown
1:00 PM 62.1 °F 58.3 °F 87% 29.96 in - ENE 2.3 mph - N/A   Unknown
2:00 PM 64 °F 59 °F 79% 29.94 in - ENE 3.5 mph - -  
2:00 PM 63.7 °F 59.0 °F 85% 29.94 in - ENE 3.5 mph - N/A   Unknown
3:00 PM 64.6 °F 60.6 °F 87% 29.93 in - NW 2.3 mph - N/A   Unknown
4:00 PM 65.8 °F 60.4 °F 83% 29.91 in - North 2.3 mph - N/A   Unknown
5:00 PM 63.7 °F 61.0 °F 91% 29.91 in - NNE 3.5 mph - N/A   Unknown
6:00 PM 63.0 °F 60.8 °F 93% 29.93 in - NW 6.9 mph - N/A   Unknown
7:00 PM 60.3 °F 59.5 °F 97% 29.94 in - NNE 3.5 mph - 0.29 in   Unknown
8:00 PM 60 °F 59 °F 95% 29.94 in - East 3.5 mph - -  
8:00 PM 59.5 °F 59.0 °F 98% 29.94 in - East 3.5 mph - 0.07 in   Unknown
9:00 PM 59.5 °F 59.0 °F 98% 29.95 in - South 2.3 mph - 0.07 in   Unknown
10:00 PM 59.5 °F 59.2 °F 99% 29.95 in - ESE 2.3 mph - 0.12 in   Unknown
11:00 PM 59.4 °F 58.8 °F 98% 29.94 in - ESE 2.3 mph - 0.05 in   Unknown